Home > Time Zones > World Clock > Weather > Germany > Ulm > Past weeks

Flag for Germany Weather past 2 weeks in Ulm, Baden-Württemberg, Germany

Now
61 °F

Cool.


Feels Like: 61 °F
Forecast: 43 / 55 °F
Wind: 6 mph from West

Location: Laupheim Airport

Current Time: Sep 21, 2014 at 4:57:40 PM

Latest Report: Sep 21, 2014 at 4:20 PM


Visibility: 3 mi

Pressure: 29.98 "Hg

Humidity: 94%

Dew point: 59 °F

Location of UlmLocation

Historic Weather in Ulm — Graph

°F

Ulm temperature yesterday

Maximum temperature yesterday: 70 °F (at 3:20 PM)
Minimum temperature yesterday: 59 °F (at 2:20 AM)
Average temperature yesterday: 62 °F

Past Weeks' High & Low Weather Summary

 TemperatureHumidityPressure
High77 °F (Sep 8, 2:20 PM)100% (Sep 7, 2:20 AM)30.15 "Hg (Sep 7, 2:20 AM)
Low46 °F (Sep 11, 6:20 AM)50% (Sep 7, 3:20 PM)29.92 "Hg (Sep 6, 3:20 PM)
Average59 °F88%30.02 "Hg
* Reported Sep 6 3:20 PM — Sep 21 3:20 PM, Ulm, Weather by CustomWeather, © 2014

Note: Actual official high and low records may vary slightly from our data, if they occured in-between our weather recording intervals... More about our weather records

Advertising

Ulm weather history for previous 24 hours

 ConditionsComfort  
Time TempWeatherWind HumidityBarometerVisibility
3:20 PM
Sep 21
61 °FCool.7 mph94%29.98 "Hg3 mi
2:20 PM59 °FCool.12 mph94%30.01 "Hg2 mi
1:20 PM61 °FCool.13 mph94%30.01 "Hg1 mi
12:20 PM64 °FMild.14 mph78%30.01 "Hg4 mi
11:20 AM63 °FMild.14 mph88%30.01 "Hg4 mi
10:20 AM59 °FCool.9 mph94%30.01 "Hg3 mi
9:20 AM59 °FCool.10 mph94%30.01 "Hg2 mi
8:20 AM59 °FCool.9 mph94%30.04 "Hg2 mi
7:20 AM57 °FCool.5 mph100%30.01 "Hg2 mi
6:20 AM57 °FCool.3 mph94%30.01 "Hg2 mi
5:20 AM57 °FCool.3 mph94%30.04 "Hg2 mi
4:20 AM57 °FCool.6 mph94%30.04 "Hg3 mi
3:20 AM55 °FCool.5 mph94%30.04 "Hg3 mi
2:20 AM55 °FCool.2 mph94%30.04 "Hg3 mi
1:20 AM57 °FCool.6 mph88%30.04 "Hg3 mi
12:20 AM59 °FCool.6 mph88%30.04 "Hg3 mi
11:20 PM
Sep 20
59 °FCool.6 mph88%30.04 "Hg3 mi
10:20 PM61 °FCool.7 mph88%30.04 "Hg3 mi
9:20 PM61 °FCool.3 mph94%30.04 "Hg3 mi
8:20 PM63 °FMild.2 mph88%30.04 "Hg3 mi
7:20 PM66 °FMild.8 mph78%30.01 "Hg4 mi
Weather by CustomWeather, © 2014

See weather overviewHow to use our weather pages